Regional Weather Roundup
Issued by NWS

Home | Current Version | Previous Version | Graphics & Text | Print | Product List | Glossary On
Versions: 1 2 3 4 5 6 7 8 9 10 11 12 13 14 15 16 17 18 19 20 21 22 23 24 25 26 27
000
ASUS45 KPSR 050310
RWRAZ

ARIZONA HOURLY REGIONAL WEATHER ROUNDUP
NATIONAL WEATHER SERVICE PHOENIX AZ
800 PM MST WED MAY 04 2016

NOTE: FAIR INDICATES FEW OR NO CLOUDS BELOW 12,000 FEET WITH NO
SIGNIFICANT WEATHER AND/OR OBSTRUCTIONS TO VISIBILITY.

AZZ001>003-036-050400-
NORTHWEST ARIZONA

CITY           SKY/WX    TMP DP  RH WIND       PRES   REMARKS
BULLHEAD CITY  CLOUDY    91  27   9 S12       29.70R
KINGMAN        MOCLDY    76  24  14 S10       29.88R
$$

AZZ004>008-015-016-018-050400-
NORTH CENTRAL ARIZONA

CITY           SKY/WX    TMP DP  RH WIND       PRES   REMARKS
GRAND CANYON   PTCLDY    59  27  29 S5        30.12R
WILLIAMS       CLEAR     63  19  19 S7G14     30.20S
PRESCOTT       CLEAR     71  22  15 S3        30.02R
FLAGSTAFF      CLEAR     53  28  38 CALM      30.16S
PAYSON         CLEAR     73  23  15 CALM      30.05S
PAGE           PTCLDY    76  25  15 SE7       29.94S
$$

AZZ009>014-017-050400-
NORTHEAST ARIZONA

CITY           SKY/WX    TMP DP  RH WIND       PRES   REMARKS
WINSLOW        CLEAR     71  26  18 S13       30.03S
SAINT JOHNS    MOCLDY    71  27  19 S8        30.09R
WINDOW ROCK    PTCLDY    62  29  28 E6        30.17R
SHOW LOW       CLEAR     63  21  20 S9        30.16R
$$

AZZ023-050400-
GREATER PHOENIX AREA

CITY           SKY/WX    TMP DP  RH WIND       PRES   REMARKS
PHOENIX        CLEAR     92  26   9 W20G28    29.72R
BUCKEYE        CLEAR     88  23   9 SW12      29.77R
GLENDALE       PTCLDY    93  23   8 SW16      29.75R
LUKE AFB       CLEAR     90  24   9 SW15      29.73R
DEER VALLEY    CLEAR     91  26   9 W16       29.75R
SCOTTSDALE     CLEAR     92  21   7 W15G23    29.77R
MESA-FALCON    PTCLDY   N/A N/A N/A W14       29.72R
CHANDLER       PTCLDY    93  27   9 W15       29.73R
$$

AZZ027-028-050400-
SOUTHWEST MARICOPA COUNTY AND PINAL COUNTY

CITY           SKY/WX    TMP DP  RH WIND       PRES   REMARKS
CASA GRANDE    CLEAR     90  30  12 W9        29.78R
$$

AZZ503-504-507>509-050400-
SOUTHEAST ARIZONA

CITY           SKY/WX    TMP DP  RH WIND       PRES   REMARKS
TUCSON         PTCLDY    88  19   8 SW8       29.87R
DAVIS-MONTHAN  CLEAR     87  19   8 SW7       29.85R
RYAN FIELD     CLEAR     88  23   9 S9        29.84R
NOGALES        CLEAR     79  23  12 S7        29.98R
SIERRA VISTA   CLEAR     76  19  12 SW15      30.02R
DOUGLAS        CLEAR     79  29  16 E10       29.98R
SAFFORD        CLEAR     82  26  13 E9        29.92R
$$

AZZ020-021-025-026-031-050400-
SOUTHWEST ARIZONA

CITY           SKY/WX    TMP DP  RH WIND       PRES   REMARKS
YUMA           PTCLDY    84  31  14 S9        29.72R
$$

CAZ031-033-041-043-047-048-061-050400-
SOUTHERN CALIFORNIA

CITY           SKY/WX    TMP DP  RH WIND       PRES   REMARKS
DOWNTOWN L.A.  MOCLDY    61  52  72 VRB5      29.92R
L.A. AIRPORT   MOCLDY    60  52  74 W13       29.92R
SAN DIEGO      MOCLDY    62  51  67 NW6       29.95S
BURBANK        PTCLDY    59  50  72 S10       29.90R
ONTARIO        PTCLDY    63  51  65 SW10      29.90R
RIVERSIDE      CLEAR     63  51  65 W5        29.90R
PALM SPRINGS   PTCLDY    83  46  27 NW22      29.72R
EL CENTRO NAS  MOCLDY    84  46  26 W15       29.71R
IMPERIAL       MOCLDY    85  47  26 W10       29.69R
BLYTHE         MOCLDY    90  37  15 S16       29.70R
NEEDLES        CLOUDY    92  25   9 SW10      29.70R
$$

NVZ020-UTZ003-050400-
SOUTHERN NEVADA-UTAH

CITY           SKY/WX    TMP DP  RH WIND       PRES   REMARKS
LAS VEGAS      MOCLDY    87  24  10 S6        29.73R
SALT LAKE CITY MOCLDY    71  38  29 N7        29.93F
$$

NMZ009-TXZ055-050400-
NEW MEXICO-WEST TEXAS

CITY           SKY/WX    TMP DP  RH WIND       PRES   REMARKS
ALBUQUERQUE    CLEAR     69  22  16 SE6       30.16R
EL PASO        CLEAR     75  21  13 E8        30.07S
$$


........................KEY........................
SKY/WX - SKY CONDITION/WEATHER
TMP    - TEMPERATURE IN FAHRENHEIT
DP     - DEW POINT IN FAHRENHEIT
RH     - RELATIVE HUMIDITY IN PERCENT
WIND   - DIRECTION AND SPEED IN MILES PER HOUR (MPH)
VRB    - VARIABLE WIND DIRECTION
PRES   - MEAN SEA LEVEL PRESSURE IN INCHES OF MERCURY
         F - FALLING PRESSURE   R - RISING PRESSURE
         S - STEADY PRESSURE
VSB    - VISIBILITY IN MILES
HX     - HEAT INDEX IN FAHRENHEIT
WCI    - WIND CHILL INDEX IN FAHRENHEIT
TC     - TEMPERATURE IN CELSIUS WHICH IS ALSO KNOWN AS
         TEMPERATURE IN CENTIGRADE
AFB    - AIR FORCE BASE
         LUKE AFB IS LUKE AIR FORCE BASE
         DAVIS-MONTHAN IS DAVIS-MONTHAN AIR FORCE BASE
NAS    - NAVAL AIR STATION
         EL CENTRO NAS IS EL CENTRO NAVAL AIR STATION
N/A    - NOT AVAILABLE





USA.gov is the U.S. government's official web portal to all federal, state and local government web resources and services.